Regional Weather Roundup
Issued by NWS

Home | Current Version | Previous Version | Graphics & Text | Print | Product List | Glossary On
Versions: 1 2 3 4 5 6 7 8 9 10 11 12 13 14 15 16 17 18 19 20 21 22 23 24 25 26 27 28 29 30 31 32 33 34 35 36 37 38 39 40 41 42 43 44 45 46 47 48 49 50
000
ASUS43 KMKX 261200
RWRWI

WISCONSIN REGIONAL WEATHER ROUNDUP
NATIONAL WEATHER SERVICE MILWAUKEE/SULLIVAN WI
700 AM CDT THU MAY 26 2016

NOTE: "FAIR" INDICATES FEW OR NO CLOUDS BELOW 12,000 FEET WITH NO
SIGNIFICANT WEATHER AND/OR OBSTRUCTIONS TO VISIBILITY.

WIZ001-002-006>008-014>016-023>028-261300-
NORTHWEST WISCONSIN

CITY           SKY/WX    TMP DP  RH WIND       PRES   REMARKS
SUPERIOR ARPT  FOG       43  43 100 CALM      29.83R VSB 1/4
ASHLAND        FOG       50  50 100 SE3       29.83R VSB 1/4
6HR MIN TEMP:  48; 6HR MAX TEMP:  50;

HAYWARD        CLOUDY    58  56  93 CALM      29.80F
6HR MIN TEMP:  51; 6HR MAX TEMP:  58;

SIREN          FOG       58  57  97 E3        29.78S VSB 1/2
CUMBERLAND     FOG       57  55  94 SE3       29.80R VSB 1/4
RICE LAKE      CLOUDY    60  59  96 E3        29.80F FOG
CHETEK         CLOUDY    60  60 100 SE7       29.79F FOG
LADYSMITH      FOG       61  60  97 CALM      29.82F VSB 1/4
EAU CLAIRE     NOT AVBL
MENOMONIE      LGT RAIN  61  61 100 E5        29.78F
NEW RICHMOND   DRIZZLE   60  57  88 W6        29.79R
OSCEOLA        CLOUDY    63  63 100 W3        29.81S
$$

WIZ003>005-009-010-017-018-261300-
NORTH CENTRAL WISCONSIN

CITY           SKY/WX    TMP DP  RH WIND       PRES   REMARKS
MANITOWISH WTR NOT AVBL
ARBOR VITAE    CLOUDY    62  61  96 S3        29.84R FOG
WOODRUFF       CLOUDY    62  61  96 S3        29.84R FOG
RHINELANDER    FOG       62  61  96 CALM      29.83F VSB 1/4
6HR MIN TEMP:  61; 6HR MAX TEMP:  62;

EAGLE RIVER      N/A     60  60  97 W7        29.84R
LAND O LAKES   CLOUDY    60  60  98 W3        29.85R
PHILLIPS       FOG       60  60 100 CALM      29.81F VSB<1/4
TOMAHAWK       FOG       61  60  97 CALM      29.83F VSB 1/2
MEDFORD        FOG       60  60 100 SE3       29.82F VSB 1/4
MERRILL        FOG       62  62 100 CALM      29.83F VSB 1/4
$$

WIZ029-030-035-036-043>047-261300-
CENTRAL WISCONSIN

CITY           SKY/WX    TMP DP  RH WIND       PRES   REMARKS
WAUSAU         FOG       63  50  63 E5        29.82R VSB 1/4
6HR MIN TEMP:  63; 6HR MAX TEMP:  64;

MOSINEE        FOG       61  61 100 SE3       29.85S VSB 1/8
MARSHFIELD     FOG       61  59  93 NE3       29.83R VSB 3/4
6HR MIN TEMP:  59; 6HR MAX TEMP:  63;

STEVENS POINT  FOG       58  58 100 E3        29.84S VSB 1/4
WAUPACA        FOG       62  61  97 CALM      29.85R VSB<1/4
WAUTOMA        NOT AVBL
WISC RAPIDS    CLOUDY    60  58  92 S3        29.85R FOG
6HR MIN TEMP:  58; 6HR MAX TEMP:  62;

CAMP DOUGLAS   TSTM      63 N/A N/A SW15      29.90R
$$

WIZ011>013-019>022-031-037>040-048>050-261300-
NORTHEAST WISCONSIN

CITY           SKY/WX    TMP DP  RH WIND       PRES   REMARKS
ANTIGO         FOG       61  61 100 CALM      29.85F VSB 1/2
SHAWANO        FOG       64  62  96 S3        29.85R VSB 1/4
OCONTO         CLOUDY    60  60 100 CALM      29.84S VSB 1/4
STURGEON BAY   NOT AVBL
GREEN BAY      FOG       63  63 100 S3        29.85R VSB<1/4
6HR MIN TEMP:  59; 6HR MAX TEMP:  63;

MANITOWOC      NOT AVBL
APPLETON       FOG       63  63 100 CALM      29.84R VSB 1/4
CLINTONVILLE   FOG       61  61 100 CALM      29.84S VSB 3/4
OSHKOSH        CLOUDY    65  63  93 S10       29.85R FOG
6HR MIN TEMP:  61; 6HR MAX TEMP:  65;

$$

WIZ032>034-041-042-053>061-261300-
SOUTHWEST WISCONSIN

CITY           SKY/WX    TMP DP  RH WIND       PRES   REMARKS
LA CROSSE      RAIN      61  59  93 SE7       29.85F
6HR MIN TEMP:  61; 6HR MAX TEMP:  67; 6HR PCP:  0.24;

SPARTA         TSTM      60  60 100 W7        29.89R
VIROQUA        CLOUDY    60  60 100 W14       29.90R
BOSCOBEL       LGT RAIN  64  60  87 NW16G29   29.83F
6HR MIN TEMP:  59; 6HR MAX TEMP:  65; 6HR PCP:  0.19;

PRAIRIE DU CHI LGT RAIN  61  59  94 NW5       29.88F
PLATTEVILLE    CLOUDY    65  60  84 W18G32    29.89R
$$

WIZ056-057-062-063-064-067-068-261300-
SOUTH CENTRAL WISCONSIN

CITY           SKY/WX    TMP DP  RH WIND       PRES   REMARKS
REEDSBURG      HVY RAIN  63  62  98 SW12G20   29.86R
BARABOO/DELLS  CLOUDY    64  60  86 SW8       29.86R
LONE ROCK      TSTM      66  61  84 W17G31    29.88R
MINERAL POINT  LGT RAIN  66  61  82 W21G31    29.88R
MADISON        CLOUDY    67  63  87 S6        29.86F THUNDER
6HR MIN TEMP:  65; 6HR MAX TEMP:  67;

MIDDLETON      CLOUDY    68  63  83 SW3       29.87S
WATERTOWN      PTSUNNY   65  65 100 S7        29.88R FOG
MONROE         CLOUDY    66  63  88 S12       29.88S
JANESVILLE     PTSUNNY   68  66  94 CALM      29.88F
$$

WIZ051-052-058>065-066-070>072-261300-
SOUTHEAST WISCONSIN

CITY           SKY/WX    TMP DP  RH WIND       PRES   REMARKS
MILWAUKEE      PTSUNNY   66  64  93 S9        29.89R FOG
6HR MIN TEMP:  61; 6HR MAX TEMP:  66;

WAUKESHA       SUNNY     64  63  94 S10       29.89S FOG
MILWAUKEE/TIMM MOSUNNY   64  61  88 S6        29.89R FOG
RACINE         CLOUDY    62  60  93 S5        29.92R FOG
6HR MIN TEMP:  58; 6HR MAX TEMP:  65;

BURLINGTON     MOSUNNY   64  64 100 SW8       29.90R FOG
KENOSHA        PTSUNNY   68  65  90 SW9       29.90R FOG
6HR MIN TEMP:  64; 6HR MAX TEMP:  68;

FOND DU LAC    CLOUDY    65  64  97 SW5       29.86R
6HR MIN TEMP:  60; 6HR MAX TEMP:  65;

SHEBOYGAN      FOG       63  62  97 S5        29.87R VSB 1/4
6HR MIN TEMP:  55; 6HR MAX TEMP:  63;

WEST BEND      CLOUDY    63  63 100 SW5       29.87F FOG
JUNEAU         MOSUNNY   63  63  99 S9        29.88R FOG
$$

LSZ147-162-261300-
LAKE SUPERIOR

STATION/POSITION TIME  TEMP    WIND        PRES    WAVE
                       AIR SEA DIR/SP/G            HT/PER
                 (UTC) (F)     (DEG/KT/KT) (MB)    (FT/S)
W MID LAKE BUOY  1050   40 38   40/ 10/ 12 1009.7F   2/ 4
DEVILS ISLAND    1100   42     100/  5/  5 1010.9R
SAXON HARBOR     1100   49      CALM  /  1 1009.5
$$

LMZ867-665-643>646-261300-
LAKE MICHIGAN

STATION/POSITION TIME  TEMP    WIND        PRES    WAVE
                       AIR SEA DIR/SP/G            HT/PER
                 (UTC) (F)     (DEG/KT/KT) (MB)    (FT/S)
CHAMBERS ISLAND  1100   56     150/  4/  6 1010.8
N MID LAKE BUOY  1050   50 45  210/ 10/ 12 1010.6S   1
NORTHPORT PIER   1100   54     160/  2/  5 1010.8S
SISTER BAY       1104   54     160/  6/  8   N/A
ALGOMA LAKESHORE 1117             CALM       N/A
KEWAUNEE LAKESHO 1100   49     170/  4/  6 1010.4R
SHEBOYGAN LAKESH 1100   55     180/  8/  8 1011.6R
PORT WASHINGTON  1100   56     180/  4/  6 1012.5
S MID LAKE BUOY  1050   54 49  160/ 14/ 16 1011.9R   1/ 3
KENOSHA   LAKESH 1100   59     200/  6/  7 1012.2R
$$

TC  - TEMPERATURE IN CELSIUS
VSB - VISIBILITY IN STATUTE MILES
WCI - WIND CHILL INDEX
HX  - HEAT INDEX





USA.gov is the U.S. government's official web portal to all federal, state and local government web resources and services.